User: anonymous   Login
Location: PACMO
(41.3967°N, 90.3760°W)
Time: 16:33:59
(UTC-06:00)
Language:

BREEZE-M DEB (TANK) - Orbit

View from above orbital plane
View from above orbital plane
View from above satellite
View from above satellite

Ground track
Ground track

The orbit data is extracted from the following two-line orbital elements,

1 31863U 07032B   14326.55886834  .00001229  00000-0  70669-3 0  3254
2 31863 045.9647 081.2199 4998369 248.7134 052.2295 05.50913514147768
Epoch (UTC): 22 November 2014 13:24:46
Eccentricity: 0.4998369
inclination: 45.9647°
perigee height: 395 km
apogee height: 13932 km
right ascension of ascending node: 81.2199°
argument of perigee: 248.7134°
revolutions per day: 5.50913514
mean anomaly at epoch: 52.2295°
orbit number at epoch: 14776

The dashed part of the orbit path shows where the satellite is in the earth's shadow,  

DLR